This is the latest recevied weather packets stored in our database for station/object W4KAB. If no packets are shown the sender has not sent any weather packets the latest 1 day(s).
| Time | Temp. | Humidity | Pressure | Rain* | Wind** | Luminosity | Snow |
|---|---|---|---|---|---|---|---|
| 1778008297 | 26.11° C | 38% | 1015.8 hPa | 0 mm | 0 m/s | 457 W/m² | - |
| 1778007993 | 26.11° C | 38% | 1015.9 hPa | 0 mm | 0.45 m/s, 295° | 618 W/m² | - |
| 1778007687 | 25.56° C | 39% | 1015.8 hPa | 0 mm | 0.45 m/s, 261° | 596 W/m² | - |
| 1778007384 | 25° C | 39% | 1016 hPa | 0 mm | 0.45 m/s, 260° | 676 W/m² | - |
| 1778007081 | 25.56° C | 38% | 1016.2 hPa | 0 mm | 0 m/s | 352 W/m² | - |
| 1778006777 | 26.11° C | 37% | 1016.2 hPa | 0 mm | 0 m/s | 750 W/m² | - |
| 1778006474 | 26.11° C | 39% | 1016.2 hPa | 0 mm | 1.34 m/s, 267° | 747 W/m² | - |
| 1778006171 | 26.11° C | 40% | 1016.4 hPa | 0 mm | 1.79 m/s, 283° | 463 W/m² | - |
| 1778005869 | 25.56° C | 39% | 1016.4 hPa | 0 mm | 0.89 m/s, 173° | 739 W/m² | - |
| 1778005565 | 25° C | 41% | 1016.4 hPa | 0 mm | 0.89 m/s, 277° | 594 W/m² | - |
| 1778005262 | 25.56° C | 39% | 1016.7 hPa | 0 mm | 0 m/s | 636 W/m² | - |
| 1778004958 | 25.56° C | 39% | 1016.8 hPa | 0 mm | 0.89 m/s, 258° | 588 W/m² | - |
| 1778004656 | 25.56° C | 37% | 1016.9 hPa | 0 mm | 0.45 m/s, 247° | 635 W/m² | - |
| 1778004351 | 25.56° C | 36% | 1016.9 hPa | 0 mm | 0.45 m/s, 285° | 646 W/m² | - |
| 1778004050 | 25.56° C | 38% | 1017 hPa | 0 mm | 1.79 m/s, 291° | 658 W/m² | - |
| 1778003750 | 25.56° C | 37% | 1016.8 hPa | 0 mm | 0.89 m/s, 351° | 790 W/m² | - |
| 1778003447 | 25.56° C | 39% | 1016.9 hPa | 0 mm | 0 m/s | 532 W/m² | - |
| 1778003144 | 25° C | 40% | 1017 hPa | 0 mm | 0.45 m/s, 231° | 550 W/m² | - |
| 1778002839 | 25° C | 38% | 1016.9 hPa | 0 mm | 0 m/s | 569 W/m² | - |
| 1778002537 | 26.11° C | 38% | 1016.7 hPa | 0 mm | 0.45 m/s, 153° | 474 W/m² | - |
| 1778002233 | 25.56° C | 37% | 1016.8 hPa | 0 mm | 0 m/s | 754 W/m² | - |
| 1778001931 | 25.56° C | 43% | 1016.9 hPa | 0 mm | 0.45 m/s, 237° | 750 W/m² | - |
| 1778001627 | 25.56° C | 40% | 1016.8 hPa | 0 mm | 1.34 m/s, 303° | 772 W/m² | - |
| 1778001322 | 25.56° C | 42% | 1017 hPa | 0 mm | 0 m/s | 714 W/m² | - |
| 1778001020 | 25° C | 41% | 1016.7 hPa | 0 mm | 0 m/s | 698 W/m² | - |
* Rain latest hour (hover to see other rain measurements)
** Current wind speed in m/s (hover to see current wind gust speed)